ARE5325 SKRG-SKBO

Flight info

Callsign ARE5325
Flight time N/A
Altitude 21000
Route ISVAT2B ISVAT ISVAT4E
Aircraft A320/M-SDE3FGHIRWY/LB1

Departure

Time 2026-04-20 23:17
Airport Jose Maria Córdova International Airport (SKRG)

Arrival

Time N/A
Airport El Dorado International Airport (SKBO)
Time Latitude Longitude Altitude Speed Heading
2026-04-20 22:52 6.17106 -75.42686 7019 ft 0 kts 279°
2026-04-20 23:07 6.17105 -75.42682 7016 ft 2 kts 277°
2026-04-20 23:07 6.17105 -75.42664 7017 ft 3 kts 257°
2026-04-20 23:07 6.17112 -75.42645 7019 ft 3 kts 234°
2026-04-20 23:07 6.17125 -75.42630 7016 ft 3 kts 216°
2026-04-20 23:08 6.17142 -75.42619 7020 ft 3 kts 198°
2026-04-20 23:08 6.17159 -75.42616 7020 ft 0 kts 178°
2026-04-20 23:11 6.17149 -75.42615 7018 ft 4 kts 178°
2026-04-20 23:11 6.17086 -75.42611 7018 ft 10 kts 168°
2026-04-20 23:11 6.17036 -75.42584 7019 ft 7 kts 148°
2026-04-20 23:12 6.16974 -75.42545 7017 ft 13 kts 149°
2026-04-20 23:12 6.16891 -75.42499 7018 ft 14 kts 152°
2026-04-20 23:12 6.16794 -75.42484 7013 ft 15 kts 179°
2026-04-20 23:12 6.16687 -75.42485 7003 ft 16 kts 179°
2026-04-20 23:13 6.16562 -75.42484 7002 ft 20 kts 180°
2026-04-20 23:13 6.16435 -75.42483 6991 ft 19 kts 179°
2026-04-20 23:13 6.16298 -75.42481 6986 ft 21 kts 180°
2026-04-20 23:13 6.16144 -75.42480 6986 ft 23 kts 180°
2026-04-20 23:14 6.15977 -75.42479 6983 ft 25 kts 179°
2026-04-20 23:14 6.15815 -75.42478 6981 ft 22 kts 179°
2026-04-20 23:14 6.15662 -75.42477 6978 ft 22 kts 179°
2026-04-20 23:14 6.15507 -75.42478 6979 ft 23 kts 180°
2026-04-20 23:15 6.15346 -75.42478 6978 ft 23 kts 178°
2026-04-20 23:15 6.15181 -75.42473 6978 ft 24 kts 180°
2026-04-20 23:15 6.15011 -75.42473 6977 ft 24 kts 180°
2026-04-20 23:15 6.14926 -75.42469 6977 ft 5 kts 163°
2026-04-20 23:16 6.14906 -75.42454 6974 ft 4 kts 129°
2026-04-20 23:16 6.14899 -75.42414 6977 ft 11 kts 92°
2026-04-20 23:16 6.14916 -75.42336 6977 ft 12 kts 60°
2026-04-20 23:16 6.14986 -75.42304 6975 ft 11 kts
2026-04-20 23:17 6.15078 -75.42305 6977 ft 23 kts 359°
2026-04-20 23:17 6.15515 -75.42306 6981 ft 103 kts 359°
2026-04-20 23:17 6.16482 -75.42312 6993 ft 170 kts 359°
2026-04-20 23:17 6.17732 -75.42312 7639 ft 185 kts
2026-04-20 23:18 6.19022 -75.42315 8459 ft 185 kts 358°
2026-04-20 23:18 6.20341 -75.42320 8732 ft 200 kts 359°
2026-04-20 23:18 6.21732 -75.41995 8950 ft 215 kts 34°
2026-04-20 23:18 6.22596 -75.40765 9381 ft 222 kts 78°
2026-04-20 23:19 6.22425 -75.39236 9862 ft 225 kts 115°
2026-04-20 23:19 6.21636 -75.37871 10329 ft 227 kts 124°
2026-04-20 23:19 6.20718 -75.36576 10811 ft 229 kts 127°
2026-04-20 23:19 6.19772 -75.35285 11278 ft 230 kts 126°
2026-04-20 23:20 6.18822 -75.33971 11748 ft 232 kts 126°
2026-04-20 23:20 6.17881 -75.32638 12199 ft 234 kts 125°
2026-04-20 23:20 6.16861 -75.31344 12508 ft 244 kts 135°
2026-04-20 23:20 6.15488 -75.30241 12625 ft 263 kts 149°
2026-04-20 23:21 6.13785 -75.29446 12795 ft 280 kts 161°
2026-04-20 23:21 6.11913 -75.28744 13181 ft 290 kts 160°
2026-04-20 23:21 6.10020 -75.28022 13726 ft 293 kts 160°
2026-04-20 23:21 6.08124 -75.27296 14237 ft 296 kts 160°
2026-04-20 23:22 6.06190 -75.26554 14732 ft 299 kts 160°
2026-04-20 23:22 6.04245 -75.25810 15213 ft 301 kts 160°
2026-04-20 23:22 6.02283 -75.25061 15694 ft 303 kts 160°
2026-04-20 23:22 6.00298 -75.24302 16161 ft 306 kts 160°
2026-04-20 23:23 5.98299 -75.23538 16636 ft 308 kts 160°
2026-04-20 23:23 5.96301 -75.22774 17105 ft 309 kts 160°
2026-04-20 23:23 5.94274 -75.21998 17563 ft 311 kts 160°
2026-04-20 23:23 5.92207 -75.21208 17770 ft 327 kts 160°
2026-04-20 23:24 5.90016 -75.20370 17883 ft 345 kts 160°
2026-04-20 23:24 5.87718 -75.19491 18005 ft 362 kts 160°
2026-04-20 23:24 5.85313 -75.18571 18139 ft 378 kts 160°
2026-04-20 23:24 5.82819 -75.17618 18414 ft 388 kts 160°
2026-04-20 23:25 5.80290 -75.16652 18818 ft 392 kts 160°
2026-04-20 23:25 5.77714 -75.15666 19286 ft 395 kts 159°
2026-04-20 23:25 5.75138 -75.14677 19755 ft 397 kts 160°
2026-04-20 23:25 5.72550 -75.13685 19976 ft 399 kts 160°
2026-04-20 23:26 5.69967 -75.12693 20035 ft 392 kts 160°
2026-04-20 23:26 5.67436 -75.11706 20046 ft 389 kts 159°
2026-04-20 23:26 5.64931 -75.10691 20045 ft 388 kts 158°
2026-04-20 23:26 5.62480 -75.09676 20045 ft 388 kts 158°
2026-04-20 23:27 5.59949 -75.08617 20046 ft 388 kts 158°
2026-04-20 23:27 5.57502 -75.07589 20048 ft 387 kts 158°
2026-04-20 23:27 5.55013 -75.06547 20049 ft 387 kts 158°
2026-04-20 23:27 5.52525 -75.05510 20045 ft 387 kts 158°
2026-04-20 23:28 5.50027 -75.04477 20028 ft 387 kts 158°
2026-04-20 23:28 5.47533 -75.03451 20016 ft 387 kts 158°
2026-04-20 23:28 5.45042 -75.02427 20001 ft 387 kts 158°
2026-04-20 23:28 5.42540 -75.01399 19985 ft 387 kts 158°
2026-04-20 23:29 5.40050 -75.00376 19969 ft 387 kts 158°
2026-04-20 23:29 5.37571 -74.99356 19957 ft 387 kts 158°
2026-04-20 23:29 5.35081 -74.98317 19939 ft 387 kts 158°
2026-04-20 23:29 5.32601 -74.97268 19924 ft 387 kts 158°
2026-04-20 23:30 5.30127 -74.96215 19908 ft 387 kts 158°
2026-04-20 23:30 5.27630 -74.95149 19896 ft 393 kts 158°
2026-04-20 23:30 5.25104 -74.94073 19893 ft 396 kts 158°
2026-04-20 23:30 5.22627 -74.92916 19858 ft 385 kts 149°